This demonstration page uses our WeatherBlox Daily Observations layout. Learn more.

Left ArrowRight Arrow

40.92945, -100.16068

Hourly Observations for November 8, 2015

Temp ( °F °C ) Dew Point ( °F °C ) Humidity (%) Winds ( mph kmh ) Pressure ( in mb ) Visibility ( mi km ) Precip ( " mm )
12:15 am 00:15 Clear 39 3.9 30 -1.1 70 70 S 9 15 30.33 1027 10 16 N/A
12:35 am 00:35 Clear 38 3.6 30 -1 72 72 S 9 15 30.33 1027 10 16 N/A
12:55 am 00:55 Clear 40 4.2 30 -1 69 69 S 13 20 30.30 1026 10 16 N/A
1:15 am 01:15 Clear 40 4.7 30 -1 67 67 S 15 24 30.30 1026 10 16 N/A
1:35 am 01:35 Clear 40 4.5 31 -0.7 69 69 S 14 22 30.30 1026 10 16 N/A
1:55 am 01:55 Clear 40 4.7 31 -0.6 69 69 S 13 20 30.30 1026 10 16 N/A
2:15 am 02:15 Clear 41 4.8 31 -0.5 69 69 S 12 19 30.30 1026 10 16 N/A
2:35 am 02:35 Clear 40 4.2 31 -0.5 72 72 S 12 19 30.30 1026 10 16 N/A
2:55 am 02:55 Clear 39 3.9 31 -0.7 72 72 SSW 13 20 30.30 1026 10 16 N/A
3:15 am 03:15 Clear 38 3.1 31 -0.8 76 76 S 13 20 30.30 1026 10 16 N/A
3:35 am 03:35 Clear 37 2.5 31 -0.8 79 79 SSW 9 15 30.30 1026 10 16 N/A
3:55 am 03:55 Clear 35 1.7 30 -1 82 82 S 8 13 30.30 1026 10 16 N/A
4:15 am 04:15 Clear 34 1.1 30 -1.1 85 85 S 8 13 30.30 1026 10 16 N/A
4:35 am 04:35 Clear 34 1 30 -1.1 86 86 S 9 15 30.30 1026 10 16 N/A
4:55 am 04:55 Clear 34 1.2 30 -0.9 86 86 S 8 13 30.30 1026 10 16 N/A
5:15 am 05:15 Clear 35 1.5 31 -0.7 85 85 S 9 15 30.30 1026 10 16 N/A
5:35 am 05:35 Clear 34 1.1 30 -1 86 86 S 8 13 30.30 1026 10 16 N/A
5:55 am 05:55 Clear 34 1 30 -1 87 87 S 8 13 30.30 1026 10 16 N/A
6:15 am 06:15 Clear 34 1 30 -1 87 87 S 9 15 30.30 1026 10 16 N/A
6:35 am 06:35 Clear 34 1 30 -1 87 87 S 8 13 30.27 1025 10 16 N/A
6:55 am 06:55 Clear 34 1 31 -0.8 88 88 S 9 15 30.27 1025 10 16 N/A
7:15 am 07:15 Clear 34 1 31 -0.6 89 89 S 9 15 30.27 1025 10 16 N/A
7:35 am 07:35 Sunny 35 1.5 31 -0.4 87 87 S 8 13 30.27 1025 10 16 N/A
7:55 am 07:55 Sunny 36 2.2 32 undefined 86 86 S 9 15 30.27 1025 10 16 N/A
8:15 am 08:15 Sunny 38 3.2 32 0.2 81 81 S 10 17 30.24 1024 10 16 N/A
8:35 am 08:35 Sunny 41 4.9 34 1 76 76 S 12 19 30.24 1024 10 16 N/A
8:55 am 08:55 Sunny 43 6.2 35 1.5 72 72 S 16 26 30.21 1023 10 16 N/A
9:15 am 09:15 Sunny 45 7.1 35 1.8 69 69 S 16 26 30.21 1023 10 16 N/A
9:35 am 09:35 Sunny 47 8.2 37 2.5 68 68 S 20 31 30.21 1023 10 16 N/A
9:55 am 09:55 Sunny 49 9.4 38 3.2 66 66 SSW 17 28 30.15 1021 10 16 N/A
10:15 am 10:15 Sunny 51 10.7 38 3.6 62 62 SSW 20 31 30.15 1021 10 16 N/A
10:35 am 10:35 Sunny 53 11.6 39 3.8 59 59 SSW 21 33 30.12 1020 10 16 N/A
10:55 am 10:55 Sunny 55 12.5 39 4 56 56 SSW 22 35 30.12 1020 10 16 N/A
11:15 am 11:15 Sunny 55 12.8 39 3.8 55 55 SSW 23 37 30.09 1019 10 16 N/A
11:35 am 11:35 Sunny 56 13.5 39 3.9 53 53 SSW 24 39 30.09 1019 10 16 N/A
11:55 am 11:55 Sunny 57 14 39 3.9 51 51 S 21 33 30.09 1019 10 16 N/A
12:15 pm 12:15 Sunny 58 14.6 39 3.9 49 49 SSW 26 43 30.03 1017 10 16 N/A
12:35 pm 12:35 Sunny 59 15.2 39 3.9 47 47 SSW 28 44 30.03 1017 10 16 N/A
12:55 pm 12:55 Sunny 60 15.5 39 4 46 46 S 24 39 30.00 1016 10 16 N/A
1:15 pm 13:15 Sunny 60 15.8 38 3.4 44 44 SSW 29 46 30.00 1016 10 16 N/A
1:35 pm 13:35 Sunny 61 16.1 38 3.5 43 43 S 26 43 30.00 1016 10 16 N/A
1:55 pm 13:55 Sunny 61 16.3 38 3.3 42 42 SSW 25 41 30.00 1016 10 16 N/A
2:15 pm 14:15 Sunny 62 16.5 37 2.6 40 40 SSW 23 37 29.97 1015 10 16 N/A
2:35 pm 14:35 Sunny 62 16.8 37 2.9 40 40 SSW 23 37 29.97 1015 10 16 N/A
2:55 pm 14:55 Sunny 62 16.7 37 2.9 40 40 SSW 22 35 29.97 1015 10 16 N/A
3:15 pm 15:15 Sunny 62 16.8 37 3 40 40 SSW 26 43 29.97 1015 10 16 N/A
3:35 pm 15:35 Sunny 62 16.6 38 3.1 41 41 SSW 18 30 29.97 1015 10 16 N/A
3:55 pm 15:55 Sunny 62 16.5 38 3.1 41 41 S 20 31 29.97 1015 10 16 N/A
4:15 pm 16:15 Sunny 61 16.1 38 3.2 42 42 S 22 35 30.00 1016 10 16 N/A
4:35 pm 16:35 Sunny 60 15.6 38 3.1 43 43 S 17 28 30.00 1016 10 16 N/A
4:55 pm 16:55 Sunny 59 15 38 3.1 45 45 S 13 20 30.00 1016 10 16 N/A
5:15 pm 17:15 Sunny 58 14.2 38 3.3 48 48 S 12 19 30.00 1016 10 16 N/A
5:35 pm 17:35 Clear 54 12.1 38 3.6 56 56 S 10 17 30.03 1017 10 16 N/A
5:55 pm 17:55 Clear 52 11.3 38 3.6 59 59 S 9 15 30.03 1017 10 16 N/A
6:15 pm 18:15 Clear 50 10.2 38 3.5 63 63 S 9 15 30.06 1018 10 16 N/A
6:35 pm 18:35 Clear 50 9.8 38 3.6 66 66 SSE 9 15 30.06 1018 10 16 N/A
6:55 pm 18:55 Clear 49 9.7 38 3.6 66 66 SSE 12 19 30.06 1018 10 16 N/A
7:15 pm 19:15 Clear 50 10.2 38 3.4 63 63 S 12 19 30.06 1018 10 16 N/A
7:35 pm 19:35 Clear 49 9.5 38 3.2 65 65 S 10 17 30.06 1018 10 16 N/A
7:55 pm 19:55 Clear 49 9.4 38 3.2 66 66 S 12 19 30.06 1018 10 16 N/A
8:15 pm 20:15 Clear 49 9.3 38 3.2 66 66 S 13 20 30.06 1018 10 16 N/A
8:35 pm 20:35 Clear 48 9.1 38 3.3 67 67 S 13 20 30.06 1018 10 16 N/A
8:55 pm 20:55 Clear 47 8.6 38 3.1 69 69 S 10 17 30.06 1018 10 16 N/A
9:15 pm 21:15 Clear 47 8.1 38 3.1 71 71 S 10 17 30.06 1018 10 16 N/A
9:35 pm 21:35 Clear 46 7.5 37 3 73 73 S 8 13 30.06 1018 10 16 N/A
9:55 pm 21:55 Clear 45 7 37 2.8 75 75 S 9 15 30.09 1019 10 16 N/A
10:15 pm 22:15 Clear 44 6.5 37 2.7 77 77 S 8 13 30.09 1019 10 16 N/A
10:35 pm 22:35 Clear 43 6.1 37 2.6 79 79 S 9 15 30.09 1019 10 16 N/A
10:55 pm 22:55 Clear 43 6.3 37 2.5 77 77 S 9 15 30.09 1019 10 16 N/A
11:15 pm 23:15 Clear 43 6 36 2.2 77 77 S 9 15 30.09 1019 10 16 N/A
11:35 pm 23:35 Clear 42 5.6 36 2 78 78 S 9 15 30.09 1019 10 16 N/A
11:55 pm 23:55 Clear 42 5.5 36 2.1 79 79 S 10 17 30.09 1019 10 16 N/A

Powered by AerisWeather